Location: Byszew
(52.1813°N, 19.2693°E)
Time: 14:39:16
(UTC+00:00)

Cosmos 2221 Rocket - Pass Details

Date: 03 March 2021
Orbit: 621 x 647 km, 82.5° (Epoch: 13 April)

Event Time Altitude Azimuth Distance (km) Brightness Sun altitude
Rises 18:39:01 0° 351° (N) 2,915 7.4 -20.9°
Reaches altitude 10° 18:41:17 10° 355° (N) 2,005 6.4 -21.3°
Maximum altitude 18:45:41 63° 77° (ENE) 703 3.5 -21.9°
Enters shadow 18:45:43 63° 79° (ENE) 703 3.5 -21.9°
